Location: Antichan
(42.9728°N, 0.6667°E)
Time: 18:56:16
(UTC+00:00)

Cosmos 2219 Rocket - Pass Details

Date: 15 August 2020
Orbit: 826 x 848 km, 71.0° (Epoch: 20 September)

Event Time Altitude Azimuth Distance (km) Brightness Sun altitude
Rises 23:20:05 0° 329° (NNW) 3,417 6.3 -32.6°
Reaches altitude 10° 23:22:37 10° 323° (NW) 2,479 5.3 -32.7°
Enters shadow 23:26:23 35° 293° (WNW) 1,334 3.4 -32.8°
